Regional Weather Roundup
Issued by NWS Sioux Falls, SD

Home | Current Version | Previous Version | Text Only | Print | Product List | Glossary On
Versions: 1 2 3 4 5 6 7 8 9 10 11 12 13 14 15 16 17 18 19 20 21 22 23 24 25 26 27 28 29 30 31 32 33 34 35 36 37 38 39 40 41 42 43 44 45 46 47 48 49 50
000
ASUS43 KFSD 280302
RWRFSD

WEATHER ROUNDUP FOR SE SOUTH DAKOTA/SW MINNESOTA/NW IOWA
NATIONAL WEATHER SERVICE SIOUX FALLS SD
900 PM CST SAT DEC 27 2014

NOTE: "FAIR" INDICATES FEW OR NO CLOUDS BELOW 12,000 FEET WITH NO
SIGNIFICANT WEATHER AND OR OBSTRUCTIONS TO VISIBILITY.


SDZ038>040-050-052>070-280400-
SOUTHEAST SOUTH DAKOTA

CITY           SKY/WX    TMP DP  RH WIND       PRES   REMARKS
CHAMBERLAIN    NOT AVBL
HURON          PTCLDY    13   9  84 S7        30.09F WCI   3
MADISON        FAIR       9   9 100 SW9       30.09F WCI  -5
MITCHELL       CLEAR     14  10  84 SW6       30.13F WCI   5
SIOUX FALLS    PTCLDY    10   8  92 SW3       30.13F
WINNER         FAIR      20  11  68 SW10      30.09S WCI   9
YANKTON        CLEAR     16  12  86 SW5       30.17S WCI   9
$$

MNZ071-072-080-081-089-090-097-098-280400-
SOUTHWEST MINNESOTA

CITY           SKY/WX    TMP DP  RH WIND       PRES   REMARKS
FAIRMONT       CLEAR     12   7  79 W14       30.13S WCI  -3
JACKSON        CLEAR     12   9  85 W9        30.13F WCI   0
LUVERNE        LGT SNOW   5   1  85 CALM      30.15F
MARSHALL       CLEAR     12   7  79 SW17      30.09F WCI  -5
MONTEVIDEO     MOCLDY    16  12  86 W3        30.11S
PIPESTONE      PTCLDY     5   3  92 W6        30.10S WCI  -6
REDWOOD FALLS  FAIR      13   7  77 SW13      30.12S WCI  -2
TRACY          CLEAR     12   8  85 SW14      30.11F WCI  -4
WINDOM         CLEAR     10   9  92 SW9       30.13S WCI  -2
WORTHINGTON    CLEAR     10 -33  12 W9        30.13S WCI  -2
$$

IAZ001>003-012>014-020>022-031-032-NEZ013-014-SDZ071-280400-
NORTHWEST IOWA

CITY           SKY/WX    TMP DP  RH WIND       PRES   REMARKS
CHEROKEE       CLEAR      9   7  95 SW6       30.18S WCI  -1
DENISON        CLEAR     14  12  92 SW3       30.19S
ESTHERVILLE    CLEAR      9   6  88 SW5       30.15S WCI   1
LE MARS        FAIR      10  10 100 S6        30.18S WCI   1
ORANGE CITY    PTCLDY    10   9  92 CALM      30.15F
SIOUX CITY     CLEAR     10   6  84 S5        30.19F WCI   2
SPENCER        CLEAR     11   6  81 W7        30.16R WCI   0
$$

ABBREVIATIONS USED IN REMARKS
   TC - TEMPERATURE IN CELSIUS
  WCI - WIND CHILL INDEX
   HX - HEAT INDEX
  VSB - VISIBILITY




USA.gov is the U.S. government's official web portal to all federal, state and local government web resources and services.